Overview Statistics Trail Chart Weather Telemetry Raw packets
 

This is the latest recevied weather packets stored in our database for station/object DG9VH-13. If no packets are shown the sender has not sent any weather packets the latest 10 day(s).

<< 1 2 3 4 5 6 >>
Time Temp. Humidity Pressure Rain* Wind** Luminosity Snow
1788683430 27.78° C 37% 1008.5 hPa - - - -
1788682800 30° C 34% 1000.8 hPa - - - -
1788682201 32.78° C 31% 1007 hPa - - - -
1788681600 33.89° C 31% 1014.7 hPa - - - -
1788681002 31.11° C 32% 1011.4 hPa - - - -
1788680402 35.56° C 28% 1018.6 hPa - - - -
1788679801 35.56° C 29% 1016.1 hPa - - - -
1788679201 35.56° C 29% 1014.5 hPa - - - -
1788678601 31.67° C 33% 1014.7 hPa - - - -
1788678002 31.67° C 33% 1016.2 hPa - - - -
1788677401 27.78° C 37% 1018.7 hPa - - - -
1788676801 27.22° C 38% 1011.8 hPa - - - -
1788676201 25.56° C 40% 1005.2 hPa - - - -
1788675601 22.22° C 46% 1004.9 hPa - - - -
1788675002 15.56° C 62% 1009 hPa - - - -
1788674402 15° C 63% 1009.4 hPa - - - -
1788673802 14.44° C 64% 1009.3 hPa - - - -
1788673201 13.89° C 64% 1009.2 hPa - - - -
1788672601 13.89° C 64% 1009.2 hPa - - - -
1788672001 13.89° C 65% 1009.4 hPa - - - -
1788671401 13.89° C 64% 1009.3 hPa - - - -
1788670801 13.89° C 63% 1009.4 hPa - - - -
1788670203 13.89° C 63% 1009.4 hPa - - - -
1788669601 13.89° C 63% 1009.4 hPa - - - -
1788669003 14.44° C 63% 1009.5 hPa - - - -

* Rain since midnight (hover to see other rain measurements)
** Current wind speed in m/s (hover to see current wind gust speed)